Location: Ostrava
(49.8330°N, 18.2830°E)
Time: 19:45:37
(UTC+02:00)

Transit 2A - All Passes

Search period start: 28 July 2015 00:00
Search period end: 07 August 2015 00:00
Orbit: 597 x 964 km, 66.7° (Epoch: 26 July)

Date Brightness Start Highest point End Pass type
(mag) Time Alt. Az. Time Alt. Az. Time Alt. Az.
28 Jul - 07:41:12 10° SE 07:44:57 18° ESE 07:48:47 10° ENE daylight
28 Jul - 09:21:31 10° SSW 09:27:39 83° SE 09:33:18 10° NE daylight
28 Jul - 11:06:25 10° W 11:11:30 28° NW 11:16:11 10° NNE daylight
28 Jul - 12:53:46 10° NW 12:56:32 14° N 12:59:09 10° NNE daylight
28 Jul - 14:39:06 10° NNW 14:42:00 15° NNE 14:44:48 10° NE daylight
28 Jul - 16:22:05 10° NNW 16:26:47 37° NE 16:31:06 10° ESE daylight
28 Jul - 18:05:28 10° NW 18:10:03 40° WSW 18:14:14 10° S daylight
29 Jul - 07:09:08 10° SE 07:11:20 12° ESE 07:13:47 10° E daylight
29 Jul - 08:47:48 10° SSW 08:53:50 63° ESE 08:59:25 10° NE daylight
29 Jul - 10:32:01 10° WSW 10:37:27 35° NW 10:42:26 10° NNE daylight
29 Jul - 12:19:07 10° NW 12:22:18 15° NNW 12:25:14 10° NNE daylight
29 Jul - 14:05:12 10° NNW 14:07:45 13° N 14:10:14 10° NE daylight
29 Jul - 15:48:18 10° NNW 15:52:44 29° NE 15:56:50 10° E daylight
29 Jul - 17:31:29 10° NW 17:36:19 58° WSW 17:40:44 10° SSE daylight
30 Jul - 08:14:14 10° S 08:20:03 47° ESE 08:25:28 10° NE daylight
30 Jul - 09:57:43 10° WSW 10:03:26 43° NW 10:08:40 10° NNE daylight
30 Jul - 11:44:27 10° WNW 11:48:04 17° NNW 11:51:24 10° NNE daylight
30 Jul - 13:31:11 10° NNW 13:33:29 13° N 13:35:43 10° NNE daylight
30 Jul - 15:14:32 10° NNW 15:18:38 24° NNE 15:22:28 10° E daylight
30 Jul - 16:57:34 10° NW 17:02:32 82° SW 17:07:02 10° SSE daylight
30 Jul - 18:43:01 10° W 18:44:50 12° WSW 18:46:24 10° SW daylight
31 Jul - 07:40:53 10° S 07:46:18 35° ESE 07:51:26 10° NE daylight
31 Jul - 09:23:33 10° SW 09:29:28 55° NW 09:34:53 10° NNE daylight
31 Jul - 11:09:48 10° WNW 11:13:52 19° NNW 11:17:37 10° NNE daylight
31 Jul - 12:57:00 10° NNW 12:59:12 12° N 13:01:20 10° NNE daylight
31 Jul - 14:40:46 10° NNW 14:44:29 20° NNE 14:48:01 10° ENE daylight
31 Jul - 16:23:42 10° NW 16:28:41 72° NE 16:33:11 10° SE daylight
31 Jul - 18:08:04 10° WNW 18:11:15 18° WSW 18:14:09 10° SSW daylight
01 Aug - 07:07:44 10° SSE 07:12:35 26° ESE 07:17:17 10° ENE daylight
01 Aug - 08:49:30 10° SW 08:55:33 71° NW 09:01:05 10° NNE daylight
01 Aug - 10:35:12 10° W 10:39:42 22° NNW 10:43:51 10° NNE daylight
01 Aug - 12:22:38 10° NNW 12:24:55 12° N 12:27:06 10° NNE daylight
01 Aug - 14:07:00 10° NNW 14:10:18 17° NNE 14:13:30 10° ENE daylight
01 Aug - 15:49:53 10° NNW 15:54:46 52° NE 15:59:13 10° SE daylight
01 Aug - 17:33:42 10° WNW 17:37:38 25° WSW 17:41:15 10° SSW daylight
02 Aug - 06:34:54 10° SSE 06:38:55 19° ESE 06:42:55 10° ENE daylight
02 Aug - 08:15:35 10° SW 08:21:40 89° SE 08:27:15 10° NE daylight
02 Aug - 10:00:40 10° W 10:05:35 27° NW 10:10:05 10° NNE daylight
02 Aug - 11:48:06 10° NW 11:50:39 13° N 11:53:04 10° NNE daylight
02 Aug - 13:33:11 10° NNW 13:36:05 15° NNE 13:38:54 10° NE daylight
02 Aug - 15:16:06 10° NNW 15:20:47 39° NE 15:25:06 10° ESE daylight
02 Aug - 16:59:32 10° NW 17:03:58 36° WSW 17:08:01 10° S daylight
03 Aug - 06:02:36 10° SE 06:05:16 14° ESE 06:08:09 10° ENE daylight
03 Aug - 07:41:49 10° SSW 07:47:50 68° ESE 07:53:23 10° NE daylight
03 Aug - 09:26:14 10° WSW 09:31:30 32° NW 09:36:20 10° NNE daylight
03 Aug - 11:13:27 10° NW 11:16:23 14° NNW 11:19:08 10° NNE daylight
03 Aug - 12:59:19 10° NNW 13:01:50 13° NNE 13:04:19 10° NE daylight
03 Aug - 14:42:19 10° NNW 14:46:46 31° NE 14:50:52 10° E daylight
03 Aug - 16:25:32 10° NW 16:30:15 52° WSW 16:34:34 10° SSE daylight
04 Aug - 07:08:12 10° SSW 07:14:03 51° ESE 07:19:27 10° NE daylight
04 Aug - 08:51:54 10° WSW 08:57:29 40° NW 09:02:34 10° NNE daylight
04 Aug - 10:38:46 10° WNW 10:42:09 16° NNW 10:45:17 10° NNE daylight
04 Aug - 12:25:21 10° NNW 12:27:35 13° N 12:29:45 10° NNE daylight
04 Aug - 14:08:34 10° NNW 14:12:40 25° NNE 14:16:32 10° E daylight
04 Aug - 15:51:36 10° NW 15:56:28 75° WSW 16:00:54 10° SSE daylight
04 Aug - 17:37:57 10° W 17:38:43 10° WSW 17:39:13 10° WSW daylight
05 Aug - 06:34:47 10° S 06:40:17 38° ESE 06:45:27 10° NE daylight
05 Aug - 08:17:41 10° WSW 08:23:30 51° NW 08:28:48 10° NNE daylight
05 Aug - 10:04:07 10° WNW 10:07:57 18° NNW 10:11:29 10° NNE daylight
05 Aug - 11:51:15 10° NNW 11:53:18 12° N 11:55:18 10° NNE daylight
05 Aug - 13:34:48 10° NNW 13:38:32 20° NNE 13:42:06 10° ENE daylight
05 Aug - 15:17:43 10° NW 15:22:38 79° NE 15:27:07 10° SE daylight
05 Aug - 17:02:19 10° WNW 17:05:08 16° WSW 17:07:42 10° SW daylight
06 Aug - 06:01:34 10° SSE 06:06:33 28° ESE 06:11:20 10° NE daylight
06 Aug - 07:43:36 10° SW 07:49:34 66° NW 07:55:01 10° NNE daylight
06 Aug - 09:29:29 10° WNW 09:33:47 21° NNW 09:37:44 10° NNE daylight
06 Aug - 11:16:55 10° NNW 11:19:01 12° N 11:21:02 10° NNE daylight
06 Aug - 13:01:02 10° NNW 13:04:22 17° NNE 13:07:34 10° ENE daylight
06 Aug - 14:43:53 10° NNW 14:48:44 57° NE 14:53:10 10° SE daylight
06 Aug - 16:27:49 10° WNW 16:31:31 22° WSW 16:34:55 10° SSW daylight
